Las Cruces, NM

1:40 PM MST on November 19, 2017 (GMT -0700)
Las Cruces International

Weather History for KLRU - February, 2014

Change the Weather History Date:

Saturday, February 15, 2014

  Actual Average Record
Temperature  
Mean Temperature 60 °F -  
Max Temperature 81 °F 57 °F 81 °F (2014)
Min Temperature 40 °F 35 °F 31 °F (2017)
Degree Days  
Heating Degree Days 4    
Growing Degree Days 10 (Base 50)    
Moisture  
Dew Point 15 °F    
Average Humidity 19    
Maximum Humidity 36    
Minimum Humidity 7    
Precipitation  
Precipitation 0.00 in - - ()
Sea Level Pressure  
Sea Level Pressure 30.12 in    
Wind  
Wind Speed 7 mph (West)    
Max Wind Speed 26 mph    
Max Gust Speed 33 mph    
Visibility 10 miles    
Events      
Averages and records for this station are not official NWS values.
T = Trace of Precipitation, MM = Missing Value Source: NWS Daily Summary

Daily Weather History Graph

Daily Weather History Graph

Search for Another Location

Airport or City:

Trip Planner

Search our weather history database for the weather conditions in past years. The results will help you decide how hot, cold, wet, or windy it might be!

Date:

Astronomy

Feb. 15, 2014 Rise Set
Actual Time 6:50 AM MST 5:53 PM MST
Civil Twilight 6:25 AM MST 6:18 PM MST
Nautical Twilight 5:56 AM MST 6:47 PM MST
Astronomical Twilight 5:27 AM MST 7:16 PM MST
Moon 6:50 PM MST (2/15) 6:55 AM MST (2/15)
Length of Visible Light 11h 53m
Length of Day
11h 03m
Waxing Gibbous, 99% of the Moon is Illuminated
Feb 15
Waxing Gibbous
Feb 22
Last Quarter
Mar 1
New
Mar 8
First Quarter
Mar 16
Full

Hourly Weather History & Observations

Time (MST) Temp. Windchill Dew Point Humidity Pressure Visibility Wind Dir Wind Speed Gust Speed Precip Events Conditions
12:15 AM 54.7 °F - 18.9 °F 25% 30.12 in 10.0 mi NNW 10.4 mph - N/A   Clear
12:35 AM 52.5 °F - 18.5 °F 26% 30.12 in 10.0 mi NNW 8.1 mph - N/A   Clear
12:55 AM 50.9 °F - 18.1 °F 27% 30.13 in 10.0 mi NW 3.5 mph - N/A   Clear
1:15 AM 48.6 °F - 17.4 °F 29% 30.13 in 10.0 mi Calm Calm - N/A   Clear
1:35 AM 48.4 °F - 17.2 °F 29% 30.13 in 10.0 mi Calm Calm - N/A   Clear
1:55 AM 49.1 °F - 16.9 °F 28% 30.13 in 10.0 mi East 3.5 mph - N/A   Clear
2:15 AM 48.9 °F - 17.1 °F 28% 30.13 in 10.0 mi Calm Calm - N/A   Clear
2:35 AM 44.2 °F - 15.4 °F 31% 30.13 in 10.0 mi Calm Calm - N/A   Clear
2:55 AM 42.1 °F - 14.9 °F 33% 30.12 in 10.0 mi Calm Calm - N/A   Clear
3:15 AM 43.9 °F 42.3 °F 16.0 °F 33% 30.12 in 10.0 mi NNW 3.5 mph - N/A   Clear
3:35 AM 47.1 °F - 16.5 °F 29% 30.12 in 10.0 mi NNW 6.9 mph - N/A   Clear
3:55 AM 46.4 °F 42.9 °F 15.8 °F 29% 30.12 in 10.0 mi NNW 6.9 mph - N/A   Clear
4:15 AM 47.1 °F - 16.3 °F 29% 30.12 in 10.0 mi North 6.9 mph - N/A   Clear
4:35 AM 45.7 °F 43.4 °F 15.6 °F 30% 30.12 in 10.0 mi North 4.6 mph - N/A   Clear
4:55 AM 45.5 °F 44.2 °F 15.4 °F 30% 30.12 in 10.0 mi NW 3.5 mph - N/A   Clear
5:15 AM 42.3 °F 38.6 °F 14.9 °F 33% 30.12 in 10.0 mi West 5.8 mph - N/A   Clear
5:35 AM 40.1 °F 34.7 °F 14.4 °F 35% 30.13 in 10.0 mi WNW 8.1 mph - N/A   Clear
5:55 AM 43.9 °F 39.3 °F 16.5 °F 33% 30.13 in 10.0 mi WNW 8.1 mph - N/A   Clear
6:15 AM 44.6 °F 40.2 °F 16.7 °F 33% 30.14 in 10.0 mi WNW 8.1 mph - N/A   Clear
6:35 AM 43.0 °F 39.5 °F 16.3 °F 34% 30.15 in 10.0 mi WNW 5.8 mph - N/A   Clear
6:55 AM 41.5 °F 37.8 °F 16.0 °F 36% 30.16 in 10.0 mi West 5.8 mph - N/A   Clear
7:15 AM 43.2 °F 39.7 °F 16.2 °F 34% 30.16 in 10.0 mi West 5.8 mph - N/A   Clear
7:35 AM 44.8 °F 43.3 °F 16.7 °F 32% 30.17 in 10.0 mi WNW 3.5 mph - N/A   Clear
7:55 AM 47.3 °F - 16.9 °F 30% 30.17 in 10.0 mi Calm Calm - N/A   Clear
8:15 AM 52.2 °F - 18.0 °F 26% 30.18 in 10.0 mi Calm Calm - N/A   Clear
8:35 AM 56.7 °F - 18.3 °F 22% 30.19 in 10.0 mi Calm Calm - N/A   Clear
8:55 AM 58.5 °F - 18.5 °F 21% 30.19 in 10.0 mi Calm Calm - N/A   Clear
9:15 AM 59.4 °F - 19.0 °F 21% 30.19 in 10.0 mi Calm Calm - N/A   Clear
9:35 AM 63.3 °F - 18.3 °F 18% 30.19 in 10.0 mi Calm Calm - N/A   Clear
9:55 AM 65.7 °F - 18.7 °F 17% 30.19 in 10.0 mi Calm Calm - N/A   Clear
10:15 AM 66.4 °F - 18.9 °F 16% 30.19 in 10.0 mi Calm Calm - N/A   Clear
10:35 AM 67.6 °F - 18.5 °F 15% 30.19 in 10.0 mi SSE 3.5 mph - N/A   Clear
10:55 AM 69.1 °F - 18.5 °F 15% 30.18 in 10.0 mi SSE 4.6 mph - N/A   Clear
11:15 AM 71.1 °F - 18.3 °F 14% 30.17 in 10.0 mi South 5.8 mph - N/A   Clear
11:35 AM 72.3 °F - 18.7 °F 13% 30.17 in 10.0 mi South 6.9 mph - N/A   Clear
11:55 AM 74.1 °F - 19.2 °F 13% 30.16 in 10.0 mi South 8.1 mph - N/A   Clear
12:15 PM 74.3 °F - 19.2 °F 13% 30.15 in 10.0 mi SSW 6.9 mph - N/A   Clear
12:35 PM 76.8 °F - 19.4 °F 12% 30.14 in 10.0 mi West 8.1 mph - N/A   Clear
12:55 PM 77.2 °F - 19.2 °F 11% 30.13 in 10.0 mi SW 8.1 mph - N/A   Clear
1:15 PM 77.7 °F - 18.7 °F 11% 30.12 in 10.0 mi WSW 9.2 mph 16.1 mph N/A   Clear
1:35 PM 77.4 °F - 18.3 °F 11% 30.11 in 10.0 mi WSW 5.8 mph 16.1 mph N/A   Clear
1:55 PM 78.1 °F - 16.9 °F 10% 30.11 in 10.0 mi West 12.7 mph 19.6 mph N/A   Clear
2:15 PM 78.3 °F - 17.6 °F 10% 30.10 in 10.0 mi SW 13.8 mph 20.7 mph N/A   Clear
2:35 PM 79.0 °F - 16.9 °F 10% 30.10 in 10.0 mi WSW 13.8 mph 19.6 mph N/A   Clear
2:55 PM 79.5 °F - 17.8 °F 10% 30.09 in 10.0 mi SSW 6.9 mph 11.5 mph N/A   Clear
3:15 PM 80.4 °F - 16.0 °F 9% 30.08 in 10.0 mi West 12.7 mph 21.9 mph N/A   Clear
3:35 PM 81.3 °F - 14.0 °F 8% 30.07 in 10.0 mi WSW 13.8 mph 21.9 mph N/A   Clear
3:55 PM 81.3 °F - 11.3 °F 7% 30.07 in 10.0 mi WSW 18.4 mph 25.3 mph N/A   Clear
4:15 PM 81.0 °F - 10.9 °F 7% 30.06 in 10.0 mi WSW 21.9 mph 27.6 mph N/A   Clear
4:35 PM 79.9 °F - 8.8 °F 7% 30.06 in 10.0 mi WSW 24.2 mph 33.4 mph N/A   Clear
4:55 PM 79.0 °F - 11.7 °F 8% 30.06 in 10.0 mi West 26.5 mph 31.1 mph N/A   Clear
5:15 PM 77.7 °F - 12.0 °F 8% 30.06 in 10.0 mi West 19.6 mph 31.1 mph N/A   Clear
5:35 PM 76.5 °F - 11.7 °F 8% 30.06 in 10.0 mi WSW 20.7 mph 31.1 mph N/A   Clear
5:55 PM 74.5 °F - 12.2 °F 9% 30.07 in 10.0 mi West 18.4 mph 27.6 mph N/A   Clear
6:15 PM 72.3 °F - 12.7 °F 10% 30.08 in 10.0 mi WSW 16.1 mph - N/A   Clear
6:35 PM 69.8 °F - 12.4 °F 11% 30.08 in 10.0 mi WSW 16.1 mph - N/A   Clear
6:55 PM 67.6 °F - 12.2 °F 12% 30.09 in 10.0 mi West 13.8 mph - N/A   Clear
7:15 PM 65.8 °F - 11.5 °F 12% 30.09 in 10.0 mi West 12.7 mph - N/A   Clear
7:35 PM 66.2 °F - 11.7 °F 12% 30.10 in 10.0 mi West 12.7 mph - N/A   Clear
7:55 PM 65.5 °F - 11.7 °F 12% 30.10 in 10.0 mi West 15.0 mph - N/A   Clear
8:15 PM 66.6 °F - 12.0 °F 12% 30.10 in 10.0 mi West 13.8 mph - N/A   Clear
8:35 PM 64.8 °F - 12.0 °F 13% 30.11 in 10.0 mi WNW 10.4 mph - N/A   Clear
8:55 PM 62.4 °F - 11.7 °F 14% 30.11 in 10.0 mi West 11.5 mph - N/A   Clear
9:15 PM 59.2 °F - 10.9 °F 15% 30.11 in 10.0 mi West 10.4 mph - N/A   Clear
9:35 PM 59.2 °F - 10.9 °F 15% 30.11 in 10.0 mi West 11.5 mph - N/A   Clear
9:55 PM 59.2 °F - 11.1 °F 15% 30.10 in 10.0 mi West 11.5 mph - N/A   Clear
10:15 PM 59.0 °F - 11.5 °F 15% 30.10 in 10.0 mi West 11.5 mph - N/A   Clear
10:35 PM 60.1 °F - 12.0 °F 15% 30.10 in 10.0 mi West 10.4 mph - N/A   Clear
10:55 PM 56.8 °F - 11.3 °F 16% 30.10 in 10.0 mi West 10.4 mph - N/A   Clear
11:15 PM 58.8 °F - 12.0 °F 16% 30.10 in 10.0 mi West 12.7 mph - N/A   Clear
11:35 PM 59.9 °F - 12.2 °F 15% 30.10 in 10.0 mi West 11.5 mph - N/A   Clear
11:55 PM 59.4 °F - 12.2 °F 16% 30.11 in 10.0 mi West 9.2 mph - N/A   Clear